Year,Month,Day,Hour,Minute,Value (Times are PST for temperature in C)
2015,06,18,00,00,16.00
2015,06,18,00,01,16.00
2015,06,18,00,02,16.10
2015,06,18,00,03,16.10
2015,06,18,00,04,16.10
2015,06,18,00,05,16.10
2015,06,18,00,06,16.10
2015,06,18,00,07,16.10
2015,06,18,00,08,16.10
2015,06,18,00,09,16.10
2015,06,18,00,10,16.10
2015,06,18,00,11,16.10
2015,06,18,00,12,16.20
2015,06,18,00,13,16.20
2015,06,18,00,14,16.20
2015,06,18,00,15,16.20
2015,06,18,00,16,16.20
2015,06,18,00,17,16.20
2015,06,18,00,18,16.20
2015,06,18,00,19,16.20
2015,06,18,00,20,16.20
2015,06,18,00,21,16.20
2015,06,18,00,22,16.10
2015,06,18,00,23,16.10
2015,06,18,00,24,16.10
2015,06,18,00,25,16.00
2015,06,18,00,26,16.00
2015,06,18,00,27,16.00
2015,06,18,00,28,15.90
2015,06,18,00,29,15.90
2015,06,18,00,30,15.90
2015,06,18,00,31,15.90
2015,06,18,00,32,15.90
2015,06,18,00,33,15.80
2015,06,18,00,34,15.80
2015,06,18,00,35,15.80
2015,06,18,00,36,15.80
2015,06,18,00,37,15.80
2015,06,18,00,38,15.80
2015,06,18,00,39,15.80
2015,06,18,00,40,15.80
2015,06,18,00,41,15.80
2015,06,18,00,42,15.80
2015,06,18,00,43,15.80
2015,06,18,00,44,15.80
2015,06,18,00,45,15.80
2015,06,18,00,46,15.80
2015,06,18,00,47,15.80
2015,06,18,00,48,15.80
2015,06,18,00,49,15.80
2015,06,18,00,50,15.70
2015,06,18,00,51,15.70
2015,06,18,00,52,15.70
2015,06,18,00,53,15.70
2015,06,18,00,54,15.70
2015,06,18,00,55,15.70
2015,06,18,00,56,15.70
2015,06,18,00,57,15.60
2015,06,18,00,58,15.60
2015,06,18,00,59,15.60
2015,06,18,01,00,15.60
2015,06,18,01,01,15.60
2015,06,18,01,02,15.60
2015,06,18,01,03,15.50
2015,06,18,01,04,15.60
2015,06,18,01,05,15.50
2015,06,18,01,06,15.50
2015,06,18,01,07,15.50
2015,06,18,01,08,15.50
2015,06,18,01,09,15.40
2015,06,18,01,10,15.40
2015,06,18,01,11,15.40
2015,06,18,01,12,15.40
2015,06,18,01,13,15.40
2015,06,18,01,14,15.40
2015,06,18,01,15,15.30
2015,06,18,01,16,15.30
2015,06,18,01,17,15.30
2015,06,18,01,18,15.30
2015,06,18,01,19,15.20
2015,06,18,01,20,15.20
2015,06,18,01,21,15.20
2015,06,18,01,22,15.20
2015,06,18,01,23,15.20
2015,06,18,01,24,15.10
2015,06,18,01,25,15.10
2015,06,18,01,26,15.10
2015,06,18,01,27,15.10
2015,06,18,01,28,15.00
2015,06,18,01,29,15.00
2015,06,18,01,30,15.00
2015,06,18,01,31,15.00
2015,06,18,01,32,15.00
2015,06,18,01,33,15.00
2015,06,18,01,34,15.00
2015,06,18,01,35,15.00
2015,06,18,01,36,15.00
2015,06,18,01,37,15.00
2015,06,18,01,38,15.00
2015,06,18,01,39,15.00
2015,06,18,01,40,15.00
2015,06,18,01,41,15.00
2015,06,18,01,42,15.00
2015,06,18,01,43,15.00
2015,06,18,01,44,15.00
2015,06,18,01,45,15.00
2015,06,18,01,46,15.00
2015,06,18,01,47,15.00
2015,06,18,01,48,15.00
2015,06,18,01,49,15.00
2015,06,18,01,50,15.00
2015,06,18,01,51,15.00
2015,06,18,01,52,15.00
2015,06,18,01,53,15.00
2015,06,18,01,54,15.00
2015,06,18,01,55,15.00
2015,06,18,01,56,15.00
2015,06,18,01,57,15.00
2015,06,18,01,58,15.00
2015,06,18,01,59,15.00
2015,06,18,02,00,15.00
2015,06,18,02,01,15.00
2015,06,18,02,02,15.00
2015,06,18,02,03,15.00
2015,06,18,02,04,15.00
2015,06,18,02,05,15.00
2015,06,18,02,06,15.00
2015,06,18,02,07,15.00
2015,06,18,02,08,15.00
2015,06,18,02,09,15.00
2015,06,18,02,10,15.00
2015,06,18,02,11,15.00
2015,06,18,02,12,15.00
2015,06,18,02,13,15.00
2015,06,18,02,14,15.00
2015,06,18,02,15,15.00
2015,06,18,02,16,15.00
2015,06,18,02,17,15.00
2015,06,18,02,18,15.00
2015,06,18,02,19,15.00
2015,06,18,02,20,15.00
2015,06,18,02,21,15.00
2015,06,18,02,22,15.00
2015,06,18,02,23,15.00
2015,06,18,02,24,15.00
2015,06,18,02,25,15.00
2015,06,18,02,26,15.00
2015,06,18,02,27,15.00
2015,06,18,02,28,15.00
2015,06,18,02,29,15.00
2015,06,18,02,30,15.00
2015,06,18,02,31,15.00
2015,06,18,02,32,15.00
2015,06,18,02,33,15.00
2015,06,18,02,34,15.00
2015,06,18,02,35,15.00
2015,06,18,02,36,15.00
2015,06,18,02,37,15.00
2015,06,18,02,38,15.00
2015,06,18,02,39,15.00
2015,06,18,02,40,15.00
2015,06,18,02,41,15.00
2015,06,18,02,42,15.00
2015,06,18,02,43,15.00
2015,06,18,02,44,15.00
2015,06,18,02,45,15.00
2015,06,18,02,46,15.00
2015,06,18,02,47,15.00
2015,06,18,02,48,15.00
2015,06,18,02,49,15.00
2015,06,18,02,50,15.00
2015,06,18,02,51,14.90
2015,06,18,02,52,14.90
2015,06,18,02,53,14.90
2015,06,18,02,54,14.90
2015,06,18,02,55,14.90
2015,06,18,02,56,14.90
2015,06,18,02,57,14.80
2015,06,18,02,58,14.80
2015,06,18,02,59,14.80
2015,06,18,03,00,14.80
2015,06,18,03,01,14.80
2015,06,18,03,02,14.80
2015,06,18,03,03,14.80
2015,06,18,03,04,14.80
2015,06,18,03,05,14.80
2015,06,18,03,06,14.80
2015,06,18,03,07,14.80
2015,06,18,03,08,14.80
2015,06,18,03,09,14.80
2015,06,18,03,10,14.70
2015,06,18,03,11,14.70
2015,06,18,03,12,14.70
2015,06,18,03,13,14.70
2015,06,18,03,14,14.70
2015,06,18,03,15,14.70
2015,06,18,03,16,14.70
2015,06,18,03,17,14.70
2015,06,18,03,18,14.70
2015,06,18,03,19,14.70
2015,06,18,03,20,14.70
2015,06,18,03,21,14.70
2015,06,18,03,22,14.70
2015,06,18,03,23,14.70
2015,06,18,03,24,14.60
2015,06,18,03,25,14.60
2015,06,18,03,26,14.60
2015,06,18,03,27,14.60
2015,06,18,03,28,14.60
2015,06,18,03,29,14.60
2015,06,18,03,30,14.60
2015,06,18,03,31,14.60
2015,06,18,03,32,14.50
2015,06,18,03,33,14.50
2015,06,18,03,34,14.50
2015,06,18,03,35,14.50
2015,06,18,03,36,14.50
2015,06,18,03,37,14.50
2015,06,18,03,38,14.40
2015,06,18,03,39,14.40
2015,06,18,03,40,14.40
2015,06,18,03,41,14.40
2015,06,18,03,42,14.40
2015,06,18,03,43,14.30
2015,06,18,03,44,14.30
2015,06,18,03,45,14.30
2015,06,18,03,46,14.30
2015,06,18,03,47,14.30
2015,06,18,03,48,14.30
2015,06,18,03,49,14.30
2015,06,18,03,50,14.30
2015,06,18,03,51,14.30
2015,06,18,03,52,14.20
2015,06,18,03,53,14.20
2015,06,18,03,54,14.20
2015,06,18,03,55,14.20
2015,06,18,03,56,14.20
2015,06,18,03,57,14.20
2015,06,18,03,58,14.20
2015,06,18,03,59,14.20
2015,06,18,04,00,14.20
2015,06,18,04,01,14.20
2015,06,18,04,02,14.20
2015,06,18,04,03,14.20
2015,06,18,04,04,14.20
2015,06,18,04,05,14.20
2015,06,18,04,06,14.20
2015,06,18,04,07,14.20
2015,06,18,04,08,14.20
2015,06,18,04,09,14.20
2015,06,18,04,10,14.20
2015,06,18,04,11,14.20
2015,06,18,04,12,14.20
2015,06,18,04,13,14.10
2015,06,18,04,14,14.10
2015,06,18,04,15,14.10
2015,06,18,04,16,14.10
2015,06,18,04,17,14.10
2015,06,18,04,18,14.10
2015,06,18,04,19,14.10
2015,06,18,04,20,14.10
2015,06,18,04,21,14.10
2015,06,18,04,22,14.10
2015,06,18,04,23,14.10
2015,06,18,04,24,14.10
2015,06,18,04,25,14.10
2015,06,18,04,26,14.10
2015,06,18,04,27,14.10
2015,06,18,04,28,14.10
2015,06,18,04,29,14.10
2015,06,18,04,30,14.10
2015,06,18,04,31,14.10
2015,06,18,04,32,14.10
2015,06,18,04,33,14.10
2015,06,18,04,34,14.10
2015,06,18,04,35,14.10
2015,06,18,04,36,14.10
2015,06,18,04,37,14.10
2015,06,18,04,38,14.00
2015,06,18,04,39,14.00
2015,06,18,04,40,14.00
2015,06,18,04,41,14.00
2015,06,18,04,42,14.00
2015,06,18,04,43,14.00
2015,06,18,04,44,14.00
2015,06,18,04,45,14.10
2015,06,18,04,46,14.10
2015,06,18,04,47,14.10
2015,06,18,04,48,14.10
2015,06,18,04,49,14.10
2015,06,18,04,50,14.10
2015,06,18,04,51,14.10
2015,06,18,04,52,14.10
2015,06,18,04,53,14.10
2015,06,18,04,54,14.10
2015,06,18,04,55,14.10
2015,06,18,04,56,14.10
2015,06,18,04,57,14.10
2015,06,18,04,58,14.10
2015,06,18,04,59,14.00
2015,06,18,05,00,14.00
2015,06,18,05,01,14.00
2015,06,18,05,02,14.00
2015,06,18,05,03,14.00
2015,06,18,05,04,14.00
2015,06,18,05,05,14.00
2015,06,18,05,06,14.00
2015,06,18,05,07,14.00
2015,06,18,05,08,14.00
2015,06,18,05,09,14.00
2015,06,18,05,10,14.00
2015,06,18,05,11,14.00
2015,06,18,05,12,14.00
2015,06,18,05,13,14.00
2015,06,18,05,14,14.00
2015,06,18,05,15,14.00
2015,06,18,05,16,14.00
2015,06,18,05,17,14.00
2015,06,18,05,18,14.00
2015,06,18,05,19,14.00
2015,06,18,05,20,14.00
2015,06,18,05,21,13.90
2015,06,18,05,22,13.90
2015,06,18,05,23,13.90
2015,06,18,05,24,13.90
2015,06,18,05,25,13.90
2015,06,18,05,26,13.90
2015,06,18,05,27,13.90
2015,06,18,05,28,13.90
2015,06,18,05,29,13.90
2015,06,18,05,30,13.90
2015,06,18,05,31,13.90
2015,06,18,05,32,13.90
2015,06,18,05,33,13.90
2015,06,18,05,34,13.90
2015,06,18,05,35,13.90
2015,06,18,05,36,13.90
2015,06,18,05,37,13.90
2015,06,18,05,38,13.90
2015,06,18,05,39,13.90
2015,06,18,05,40,13.90
2015,06,18,05,41,13.90
2015,06,18,05,42,13.90
2015,06,18,05,43,13.90
2015,06,18,05,44,13.90
2015,06,18,05,45,13.90
2015,06,18,05,46,13.90
2015,06,18,05,47,13.90
2015,06,18,05,48,13.90
2015,06,18,05,49,13.90
2015,06,18,05,50,13.90
2015,06,18,05,51,13.90
2015,06,18,05,52,13.90
2015,06,18,05,53,13.90
2015,06,18,05,54,13.90
2015,06,18,05,55,13.90
2015,06,18,05,56,13.90
2015,06,18,05,57,13.90
2015,06,18,05,58,14.00
2015,06,18,05,59,14.00
2015,06,18,06,00,14.00
2015,06,18,06,01,14.00
2015,06,18,06,02,14.00
2015,06,18,06,03,14.00
2015,06,18,06,04,14.00
2015,06,18,06,05,14.00
2015,06,18,06,06,14.00
2015,06,18,06,07,14.00
2015,06,18,06,08,13.90
2015,06,18,06,09,13.90
2015,06,18,06,10,13.90
2015,06,18,06,11,13.90
2015,06,18,06,12,13.90
2015,06,18,06,13,13.90
2015,06,18,06,14,13.90
2015,06,18,06,15,13.90
2015,06,18,06,16,13.90
2015,06,18,06,17,13.90
2015,06,18,06,18,13.90
2015,06,18,06,19,13.90
2015,06,18,06,20,13.90
2015,06,18,06,21,13.90
2015,06,18,06,22,13.90
2015,06,18,06,23,13.90
2015,06,18,06,24,13.90
2015,06,18,06,25,14.00
2015,06,18,06,26,14.00
2015,06,18,06,27,14.00
2015,06,18,06,28,14.00
2015,06,18,06,29,14.00
2015,06,18,06,30,14.10
2015,06,18,06,31,14.10
2015,06,18,06,32,14.10
2015,06,18,06,33,14.10
2015,06,18,06,34,14.10
2015,06,18,06,35,14.10
2015,06,18,06,36,14.10
2015,06,18,06,37,14.10
2015,06,18,06,38,14.10
2015,06,18,06,39,14.10
2015,06,18,06,40,14.10
2015,06,18,06,41,14.10
2015,06,18,06,42,14.20
2015,06,18,06,43,14.20
2015,06,18,06,44,14.20
2015,06,18,06,45,14.20
2015,06,18,06,46,14.20
2015,06,18,06,47,14.20
2015,06,18,06,48,14.20
2015,06,18,06,49,14.20
2015,06,18,06,50,14.30
2015,06,18,06,51,14.20
2015,06,18,06,52,14.20
2015,06,18,06,53,14.20
2015,06,18,06,54,14.20
2015,06,18,06,55,14.20
2015,06,18,06,56,14.20
2015,06,18,06,57,14.20
2015,06,18,06,58,14.20
2015,06,18,06,59,14.30
2015,06,18,07,00,14.30
2015,06,18,07,01,14.30
2015,06,18,07,02,14.30
2015,06,18,07,03,14.30
2015,06,18,07,04,14.30
2015,06,18,07,05,14.30
2015,06,18,07,06,14.30
2015,06,18,07,07,14.30
2015,06,18,07,08,14.30
2015,06,18,07,09,14.30
2015,06,18,07,10,14.30
2015,06,18,07,11,14.40
2015,06,18,07,12,14.40
2015,06,18,07,13,14.40
2015,06,18,07,14,14.40
2015,06,18,07,15,14.40
2015,06,18,07,16,14.40
2015,06,18,07,17,14.50
2015,06,18,07,18,14.50
2015,06,18,07,19,14.60
2015,06,18,07,20,14.60
2015,06,18,07,21,14.60
2015,06,18,07,22,14.60
2015,06,18,07,23,14.60
2015,06,18,07,24,14.70
2015,06,18,07,25,14.70
2015,06,18,07,26,14.70
2015,06,18,07,27,14.70
2015,06,18,07,28,14.70
2015,06,18,07,29,14.70
2015,06,18,07,30,14.80
2015,06,18,07,31,14.80
2015,06,18,07,32,14.80
2015,06,18,07,33,14.80
2015,06,18,07,34,14.80
2015,06,18,07,35,14.80
2015,06,18,07,36,14.90
2015,06,18,07,37,14.90
2015,06,18,07,38,15.00
2015,06,18,07,39,15.00
2015,06,18,07,40,15.00
2015,06,18,07,41,15.00
2015,06,18,07,42,15.00
2015,06,18,07,43,15.00
2015,06,18,07,44,15.00
2015,06,18,07,45,15.00
2015,06,18,07,46,15.10
2015,06,18,07,47,15.20
2015,06,18,07,48,15.30
2015,06,18,07,49,15.30
2015,06,18,07,50,15.40
2015,06,18,07,51,15.50
2015,06,18,07,52,15.50
2015,06,18,07,53,15.60
2015,06,18,07,54,15.60
2015,06,18,07,55,15.60
2015,06,18,07,56,15.70
2015,06,18,07,57,15.70
2015,06,18,07,58,15.70
2015,06,18,07,59,15.80
2015,06,18,08,00,15.80
2015,06,18,08,01,15.80
2015,06,18,08,02,15.80
2015,06,18,08,03,15.80
2015,06,18,08,04,15.80
2015,06,18,08,05,15.90
2015,06,18,08,06,15.90
2015,06,18,08,07,15.90
2015,06,18,08,08,15.90
2015,06,18,08,09,15.90
2015,06,18,08,10,15.90
2015,06,18,08,11,16.00
2015,06,18,08,12,16.00
2015,06,18,08,13,16.00
2015,06,18,08,14,16.10
2015,06,18,08,15,16.10
2015,06,18,08,16,16.10
2015,06,18,08,17,16.10
2015,06,18,08,18,16.20
2015,06,18,08,19,16.20
2015,06,18,08,20,16.20
2015,06,18,08,21,16.20
2015,06,18,08,22,16.30
2015,06,18,08,23,16.30
2015,06,18,08,24,16.30
2015,06,18,08,25,16.30
2015,06,18,08,26,16.40
2015,06,18,08,27,16.40
2015,06,18,08,28,16.40
2015,06,18,08,29,16.40
2015,06,18,08,30,16.50
2015,06,18,08,31,16.50
2015,06,18,08,32,16.50
2015,06,18,08,33,16.60
2015,06,18,08,34,16.60
2015,06,18,08,35,16.60
2015,06,18,08,36,16.70
2015,06,18,08,37,16.70
2015,06,18,08,38,16.70
2015,06,18,08,39,16.70
2015,06,18,08,40,16.80
2015,06,18,08,41,16.80
2015,06,18,08,42,16.90
2015,06,18,08,43,17.00
2015,06,18,08,44,17.10
2015,06,18,08,45,17.20
2015,06,18,08,46,17.30
2015,06,18,08,47,17.40
2015,06,18,08,48,17.50
2015,06,18,08,49,17.50
2015,06,18,08,50,17.60
2015,06,18,08,51,17.70
2015,06,18,08,52,17.80
2015,06,18,08,53,17.80
2015,06,18,08,54,17.80
2015,06,18,08,55,17.80
2015,06,18,08,56,17.80
2015,06,18,08,57,17.80
2015,06,18,08,58,17.80
2015,06,18,08,59,17.80
2015,06,18,09,00,17.80
2015,06,18,09,01,17.80
2015,06,18,09,02,17.80
2015,06,18,09,03,17.90
2015,06,18,09,04,18.00
2015,06,18,09,05,18.00
2015,06,18,09,06,18.10
2015,06,18,09,07,18.20
2015,06,18,09,08,18.40
2015,06,18,09,09,18.50
2015,06,18,09,10,18.60
2015,06,18,09,11,18.60
2015,06,18,09,12,18.70
2015,06,18,09,13,18.70
2015,06,18,09,14,18.80
2015,06,18,09,15,18.80
2015,06,18,09,16,18.90
2015,06,18,09,17,18.90
2015,06,18,09,18,18.90
2015,06,18,09,19,18.90
2015,06,18,09,20,19.00
2015,06,18,09,21,19.00
2015,06,18,09,22,19.10
2015,06,18,09,23,19.10
2015,06,18,09,24,19.20
2015,06,18,09,25,19.20
2015,06,18,09,26,19.20
2015,06,18,09,27,19.30
2015,06,18,09,28,19.30
2015,06,18,09,29,19.40
2015,06,18,09,30,19.40
2015,06,18,09,31,19.40
2015,06,18,09,32,19.40
2015,06,18,09,33,19.30
2015,06,18,09,34,19.30
2015,06,18,09,35,19.30
2015,06,18,09,36,19.40
2015,06,18,09,37,19.40
2015,06,18,09,38,19.40
2015,06,18,09,39,19.50
2015,06,18,09,40,19.50
2015,06,18,09,41,19.60
2015,06,18,09,42,19.60
2015,06,18,09,43,19.70
2015,06,18,09,44,19.70
2015,06,18,09,45,19.80
2015,06,18,09,46,19.90
2015,06,18,09,47,20.00
2015,06,18,09,48,20.10
2015,06,18,09,49,20.20
2015,06,18,09,50,20.20
2015,06,18,09,51,20.30
2015,06,18,09,52,20.30
2015,06,18,09,53,20.30
2015,06,18,09,54,20.30
2015,06,18,09,55,20.30
2015,06,18,09,56,20.30
2015,06,18,09,57,20.30
2015,06,18,09,58,20.40
2015,06,18,09,59,20.40
2015,06,18,10,00,20.40
2015,06,18,10,01,20.40
2015,06,18,10,02,20.40
2015,06,18,10,03,20.50
2015,06,18,10,04,20.50
2015,06,18,10,05,20.50
2015,06,18,10,06,20.60
2015,06,18,10,07,20.60
2015,06,18,10,08,20.60
2015,06,18,10,09,20.50
2015,06,18,10,10,20.40
2015,06,18,10,11,20.40
2015,06,18,10,12,20.30
2015,06,18,10,13,20.30
2015,06,18,10,14,20.20
2015,06,18,10,15,20.20
2015,06,18,10,16,20.20
2015,06,18,10,17,20.20
2015,06,18,10,18,20.10
2015,06,18,10,19,20.10
2015,06,18,10,20,20.10
2015,06,18,10,21,20.10
2015,06,18,10,22,20.10
2015,06,18,10,23,20.10
2015,06,18,10,24,20.20
2015,06,18,10,25,20.20
2015,06,18,10,26,20.20
2015,06,18,10,27,20.30
2015,06,18,10,28,20.30
2015,06,18,10,29,20.30
2015,06,18,10,30,20.30
2015,06,18,10,31,20.40
2015,06,18,10,32,20.40
2015,06,18,10,33,20.40
2015,06,18,10,34,20.50
2015,06,18,10,35,20.50
2015,06,18,10,36,20.60
2015,06,18,10,37,20.60
2015,06,18,10,38,20.60
2015,06,18,10,39,20.70
2015,06,18,10,40,20.70
2015,06,18,10,41,20.70
2015,06,18,10,42,20.70
2015,06,18,10,43,20.70
2015,06,18,10,44,20.80
2015,06,18,10,45,20.80
2015,06,18,10,46,20.90
2015,06,18,10,47,21.00
2015,06,18,10,48,21.00
2015,06,18,10,49,21.20
2015,06,18,10,50,21.20
2015,06,18,10,51,21.30
2015,06,18,10,52,21.40
2015,06,18,10,53,21.50
2015,06,18,10,54,21.50
2015,06,18,10,55,21.60
2015,06,18,10,56,21.70
2015,06,18,10,57,21.70
2015,06,18,10,58,21.80
2015,06,18,10,59,21.90
2015,06,18,11,00,21.90
2015,06,18,11,01,22.00
2015,06,18,11,02,22.10
2015,06,18,11,03,22.10
2015,06,18,11,04,22.10
2015,06,18,11,05,22.20
2015,06,18,11,06,22.10
2015,06,18,11,07,22.10
2015,06,18,11,08,22.10
2015,06,18,11,09,22.00
2015,06,18,11,10,21.90
2015,06,18,11,11,21.90
2015,06,18,11,12,21.90
2015,06,18,11,13,21.80
2015,06,18,11,14,21.80
2015,06,18,11,15,21.80
2015,06,18,11,16,21.80
2015,06,18,11,17,21.70
2015,06,18,11,18,21.70
2015,06,18,11,19,21.70
2015,06,18,11,20,21.70
2015,06,18,11,21,21.70
2015,06,18,11,22,21.70
2015,06,18,11,23,21.70
2015,06,18,11,24,21.70
2015,06,18,11,25,21.70
2015,06,18,11,26,21.70
2015,06,18,11,27,21.70
2015,06,18,11,28,21.70
2015,06,18,11,29,21.80
2015,06,18,11,30,21.80
2015,06,18,11,31,21.90
2015,06,18,11,32,22.00
2015,06,18,11,33,22.10
2015,06,18,11,34,22.20
2015,06,18,11,35,22.30
2015,06,18,11,36,22.30
2015,06,18,11,37,22.40
2015,06,18,11,38,22.40
2015,06,18,11,39,22.40
2015,06,18,11,40,22.50
2015,06,18,11,41,22.50
2015,06,18,11,42,22.50
2015,06,18,11,43,22.40
2015,06,18,11,44,22.40
2015,06,18,11,45,22.40
2015,06,18,11,46,22.40
2015,06,18,11,47,22.40
2015,06,18,11,48,22.30
2015,06,18,11,49,22.30
2015,06,18,11,50,22.20
2015,06,18,11,51,22.20
2015,06,18,11,52,22.10
2015,06,18,11,53,22.00
2015,06,18,11,54,22.00
2015,06,18,11,55,21.90
2015,06,18,11,56,21.80
2015,06,18,11,57,21.80
2015,06,18,11,58,21.70
2015,06,18,11,59,21.70
2015,06,18,12,00,21.60
2015,06,18,12,01,21.60
2015,06,18,12,02,21.60
2015,06,18,12,03,21.60
2015,06,18,12,04,21.60
2015,06,18,12,05,21.60
2015,06,18,12,06,21.70
2015,06,18,12,07,21.70
2015,06,18,12,08,21.80
2015,06,18,12,09,21.80
2015,06,18,12,10,21.90
2015,06,18,12,11,22.00
2015,06,18,12,12,22.10
2015,06,18,12,13,22.20
2015,06,18,12,14,22.20
2015,06,18,12,15,22.30
2015,06,18,12,16,22.30
2015,06,18,12,17,22.30
2015,06,18,12,18,22.30
2015,06,18,12,19,22.40
2015,06,18,12,20,22.40
2015,06,18,12,21,22.50
2015,06,18,12,22,22.50
2015,06,18,12,23,22.60
2015,06,18,12,24,22.60
2015,06,18,12,25,22.60
2015,06,18,12,26,22.60
2015,06,18,12,27,22.50
2015,06,18,12,28,22.50
2015,06,18,12,29,22.40
2015,06,18,12,30,22.40
2015,06,18,12,31,22.40
2015,06,18,12,32,22.30
2015,06,18,12,33,22.20
2015,06,18,12,34,22.20
2015,06,18,12,35,22.10
2015,06,18,12,36,22.10
2015,06,18,12,37,22.10
2015,06,18,12,38,22.00
2015,06,18,12,39,22.00
2015,06,18,12,40,21.90
2015,06,18,12,41,21.90
2015,06,18,12,42,21.80
2015,06,18,12,43,21.80
2015,06,18,12,44,21.90
2015,06,18,12,45,21.80
2015,06,18,12,46,21.80
2015,06,18,12,47,21.80
2015,06,18,12,48,21.80
2015,06,18,12,49,21.80
2015,06,18,12,50,21.80
2015,06,18,12,51,21.80
2015,06,18,12,52,21.80
2015,06,18,12,53,21.80
2015,06,18,12,54,21.90
2015,06,18,12,55,21.90
2015,06,18,12,56,21.90
2015,06,18,12,57,21.90
2015,06,18,12,58,21.90
2015,06,18,12,59,21.90
2015,06,18,13,00,21.90
2015,06,18,13,01,21.90
2015,06,18,13,02,21.80
2015,06,18,13,03,21.80
2015,06,18,13,04,21.80
2015,06,18,13,05,21.80
2015,06,18,13,06,21.80
2015,06,18,13,07,21.80
2015,06,18,13,08,21.70
2015,06,18,13,09,21.70
2015,06,18,13,10,21.70
2015,06,18,13,11,21.70
2015,06,18,13,12,21.70
2015,06,18,13,13,21.70
2015,06,18,13,14,21.70
2015,06,18,13,15,21.60
2015,06,18,13,16,21.60
2015,06,18,13,17,21.70
2015,06,18,13,18,21.70
2015,06,18,13,19,21.70
2015,06,18,13,20,21.70
2015,06,18,13,21,21.70
2015,06,18,13,22,21.70
2015,06,18,13,23,21.70
2015,06,18,13,24,21.80
2015,06,18,13,25,21.80
2015,06,18,13,26,21.90
2015,06,18,13,27,21.90
2015,06,18,13,28,22.10
2015,06,18,13,29,22.20
2015,06,18,13,30,22.20
2015,06,18,13,31,22.30
2015,06,18,13,32,22.40
2015,06,18,13,33,22.50
2015,06,18,13,34,22.60
2015,06,18,13,35,22.70
2015,06,18,13,36,22.70
2015,06,18,13,37,22.80
2015,06,18,13,38,22.80
2015,06,18,13,39,22.80
2015,06,18,13,40,22.80
2015,06,18,13,41,22.90
2015,06,18,13,42,22.90
2015,06,18,13,43,22.90
2015,06,18,13,44,22.90
2015,06,18,13,45,23.00
2015,06,18,13,46,23.00
2015,06,18,13,47,23.10
2015,06,18,13,48,23.10
2015,06,18,13,49,23.00
2015,06,18,13,50,22.90
2015,06,18,13,51,22.80
2015,06,18,13,52,22.80
2015,06,18,13,53,22.70
2015,06,18,13,54,22.70
2015,06,18,13,55,22.70
2015,06,18,13,56,22.70
2015,06,18,13,57,22.70
2015,06,18,13,58,22.70
2015,06,18,13,59,22.80
2015,06,18,14,00,22.80
2015,06,18,14,01,22.80
2015,06,18,14,02,22.80
2015,06,18,14,03,22.80
2015,06,18,14,04,22.80
2015,06,18,14,05,22.70
2015,06,18,14,06,22.70
2015,06,18,14,07,22.70
2015,06,18,14,08,22.60
2015,06,18,14,09,22.60
2015,06,18,14,10,22.50
2015,06,18,14,11,22.40
2015,06,18,14,12,22.40
2015,06,18,14,13,22.40
2015,06,18,14,14,22.40
2015,06,18,14,15,22.40
2015,06,18,14,16,22.40
2015,06,18,14,17,22.50
2015,06,18,14,18,22.50
2015,06,18,14,19,22.50
2015,06,18,14,20,22.40
2015,06,18,14,21,22.40
2015,06,18,14,22,22.40
2015,06,18,14,23,22.40
2015,06,18,14,24,22.30
2015,06,18,14,25,22.30
2015,06,18,14,26,22.30
2015,06,18,14,27,22.20
2015,06,18,14,28,22.20
2015,06,18,14,29,22.20
2015,06,18,14,30,22.10
2015,06,18,14,31,22.10
2015,06,18,14,32,22.00
2015,06,18,14,33,21.90
2015,06,18,14,34,21.90
2015,06,18,14,35,21.90
2015,06,18,14,36,21.90
2015,06,18,14,37,22.00
2015,06,18,14,38,22.10
2015,06,18,14,39,22.10
2015,06,18,14,40,22.20
2015,06,18,14,41,22.20
2015,06,18,14,42,22.20
2015,06,18,14,43,22.30
2015,06,18,14,44,22.30
2015,06,18,14,45,22.30
2015,06,18,14,46,22.40
2015,06,18,14,47,22.40
2015,06,18,14,48,22.40
2015,06,18,14,49,22.50
2015,06,18,14,50,22.50
2015,06,18,14,51,22.50
2015,06,18,14,52,22.60
2015,06,18,14,53,22.60
2015,06,18,14,54,22.70
2015,06,18,14,55,22.70
2015,06,18,14,56,22.80
2015,06,18,14,57,22.80
2015,06,18,14,58,22.90
2015,06,18,14,59,22.90
2015,06,18,15,00,22.90
2015,06,18,15,01,22.90
2015,06,18,15,02,22.90
2015,06,18,15,03,22.90
2015,06,18,15,04,22.90
2015,06,18,15,05,22.90
2015,06,18,15,06,22.90
2015,06,18,15,07,22.90
2015,06,18,15,08,22.90
2015,06,18,15,09,22.80
2015,06,18,15,10,22.80
2015,06,18,15,11,22.80
2015,06,18,15,12,22.80
2015,06,18,15,13,22.80
2015,06,18,15,14,22.80
2015,06,18,15,15,22.80
2015,06,18,15,16,22.80
2015,06,18,15,17,22.80
2015,06,18,15,18,22.80
2015,06,18,15,19,22.90
2015,06,18,15,20,22.90
2015,06,18,15,21,22.80
2015,06,18,15,22,22.80
2015,06,18,15,23,22.70
2015,06,18,15,24,22.70
2015,06,18,15,25,22.70
2015,06,18,15,26,22.70
2015,06,18,15,27,22.70
2015,06,18,15,28,22.60
2015,06,18,15,29,22.60
2015,06,18,15,30,22.60
2015,06,18,15,31,22.60
2015,06,18,15,32,22.60
2015,06,18,15,33,22.60
2015,06,18,15,34,22.50
2015,06,18,15,35,22.50
2015,06,18,15,36,22.40
2015,06,18,15,37,22.40
2015,06,18,15,38,22.40
2015,06,18,15,39,22.30
2015,06,18,15,40,22.30
2015,06,18,15,41,22.30
2015,06,18,15,42,22.30
2015,06,18,15,43,22.30
2015,06,18,15,44,22.30
2015,06,18,15,45,22.30
2015,06,18,15,46,22.30
2015,06,18,15,47,22.30
2015,06,18,15,48,22.30
2015,06,18,15,49,22.20
2015,06,18,15,50,22.20
2015,06,18,15,51,22.10
2015,06,18,15,52,22.10
2015,06,18,15,53,22.00
2015,06,18,15,54,21.90
2015,06,18,15,55,21.80
2015,06,18,15,56,21.80
2015,06,18,15,57,21.70
2015,06,18,15,58,21.60
2015,06,18,15,59,21.60
2015,06,18,16,00,21.50
2015,06,18,16,01,21.40
2015,06,18,16,02,21.30
2015,06,18,16,03,21.20
2015,06,18,16,04,21.20
2015,06,18,16,05,21.10
2015,06,18,16,06,21.10
2015,06,18,16,07,21.00
2015,06,18,16,08,21.00
2015,06,18,16,09,21.00
2015,06,18,16,10,21.00
2015,06,18,16,11,21.00
2015,06,18,16,12,21.00
2015,06,18,16,13,21.00
2015,06,18,16,14,21.00
2015,06,18,16,15,21.00
2015,06,18,16,16,21.00
2015,06,18,16,17,21.10
2015,06,18,16,18,21.10
2015,06,18,16,19,21.10
2015,06,18,16,20,21.10
2015,06,18,16,21,21.10
2015,06,18,16,22,21.10
2015,06,18,16,23,21.00
2015,06,18,16,24,20.90
2015,06,18,16,25,20.80
2015,06,18,16,26,20.70
2015,06,18,16,27,20.60
2015,06,18,16,28,20.50
2015,06,18,16,29,20.50
2015,06,18,16,30,20.40
2015,06,18,16,31,20.30
2015,06,18,16,32,20.30
2015,06,18,16,33,20.30
2015,06,18,16,34,20.30
2015,06,18,16,35,20.20
2015,06,18,16,36,20.20
2015,06,18,16,37,20.20
2015,06,18,16,38,20.20
2015,06,18,16,39,20.20
2015,06,18,16,40,20.20
2015,06,18,16,41,20.10
2015,06,18,16,42,20.10
2015,06,18,16,43,20.10
2015,06,18,16,44,20.10
2015,06,18,16,45,20.10
2015,06,18,16,46,20.00
2015,06,18,16,47,19.90
2015,06,18,16,48,19.90
2015,06,18,16,49,19.80
2015,06,18,16,50,19.80
2015,06,18,16,51,19.80
2015,06,18,16,52,19.80
2015,06,18,16,53,19.70
2015,06,18,16,54,19.70
2015,06,18,16,55,19.70
2015,06,18,16,56,19.60
2015,06,18,16,57,19.60
2015,06,18,16,58,19.50
2015,06,18,16,59,19.40
2015,06,18,17,00,19.30
2015,06,18,17,01,19.20
2015,06,18,17,02,19.10
2015,06,18,17,03,19.00
2015,06,18,17,04,18.90
2015,06,18,17,05,18.80
2015,06,18,17,06,18.60
2015,06,18,17,07,18.50
2015,06,18,17,08,18.40
2015,06,18,17,09,18.30
2015,06,18,17,10,18.10
2015,06,18,17,11,18.10
2015,06,18,17,12,18.00
2015,06,18,17,13,17.90
2015,06,18,17,14,17.80
2015,06,18,17,15,17.80
2015,06,18,17,16,17.70
2015,06,18,17,17,17.70
2015,06,18,17,18,17.60
2015,06,18,17,19,17.50